shoulder
new_line
new_line
first
second
third
Al di la della Luna; Beyond the Moon; Astrophotography; Astrofotografia; Danilo Pivato
 
 
         
         
2018

Orbital Elements

Epoch 2018 Nov. 18.0 TT = JDT 2458440.5
T 2018 Nov 10.97757 TT
q   1.5885900            (2000.0)                     P                      Q
z  +0.02596721    Peri.   359.58219    +0.21468225     -0.92685119
a  11.2941221     Node     77.99964    +0.89700086    +0.06235146
e   0.8593436      Incl.       18.35309    +0.38639486    +0.37021503
p   37.96     
Return in the future: 2056
 
         
         
2018.12.16
2018.12.29
         
       
       
         
         
         

 

       
 
Since: 01/01/2004
 
       
 
Since: 01/11/2010